{"data":{"norad_id":64712,"epoch":"2026-09-20T11:26:15.362016Z","epoch_age_seconds":129677,"freshness":"FRESH","line1":"1 64712U 25142S   26263.47656669  .00009332  00000+0  32855-3 0  9994","line2":"2 64712  70.0017 181.0852 0002730 272.7849  87.3014 15.29592463 68691","mean_motion":15.29592463,"eccentricity":0.000273,"inclination_deg":70.0017,"raan_deg":181.0852,"arg_perigee_deg":272.7849,"mean_anomaly_deg":87.3014,"bstar":0.00032855,"rev_number":6869,"period_min":94.142723296094,"perigee_km":475.15820528154,"apogee_km":478.90112628106,"semimajor_km":6855.1666657813,"source":"CELESTRAK","updated_at":"2026-09-21T09:00:35.406370Z"}}